Wetbulb
30.08 30.45 31.38 31.31 31.40 30.46 29.05 28.91 29.04 29.67 29.94 29.85 31.00 30.95 30.64 30.43 31.26 31.55 31.56 31.79 31.71 32.02 32.13 31.51 32.48 33.55 34.89 34.74 31.51 33.91 33.77 30.78 33.89 35.41 28.17 27.99 30.13 31.57 31.88 33.77 31.65 31.69 33.36
30.76 29.69 29.49 30.20 29.74 29.50 28.32 28.06 28.44 28.58 29.28 29.04 29.11 28.64 28.68 29.20 29.45 29.16 29.60 30.17 30.43 30.70 31.31 30.93 31.85 33.21 31.08 33.30 34.14 32.48 33.59 33.43 33.42 33.56 26.13 25.89 27.88 31.25 31.85 31.34 29.92 30.91 30.06
29.36 28.86 28.61 28.45 28.39 27.23 28.22 28.00 27.99 27.84 27.86 28.37 27.95 27.05 26.45 27.16 27.74 28.35 28.52 28.75 28.98 29.29 30.02 30.73 31.41 30.49 30.83 31.83 31.28 31.76 32.92 33.30 32.05 33.13 32.96 25.10 27.38 28.83 27.03 28.82 28.30 28.10 27.62
28.49 27.38 26.06 25.74 26.75 26.69 26.97 26.81 26.36 26.53 26.43 26.91 27.55 27.07 26.79 26.54 27.00 27.39 28.20 27.68 27.68 28.46 29.39 30.17 30.81 31.24 31.90 31.87 31.13 31.30 31.46 32.06 30.86 30.81 32.47 23.85 24.73 26.40 29.12 27.57 24.52 25.77 25.92
26.25 25.56 25.34 25.66 26.14 26.41 25.91 25.43 25.89 25.73 25.40 25.87 25.61 25.00 25.01 25.52 26.42 25.93 27.29 27.84 28.08 28.54 29.32 29.65 29.77 30.49 32.90 33.79 32.01 31.89 30.76 30.60 31.23 30.09 30.50 23.04 23.55 24.22 26.57 27.48 26.95 26.40 25.75
24.12 24.92 25.91 25.66 26.20 26.39 26.31 26.31 26.16 25.31 24.45 23.74 23.54 22.85 22.73 24.29 27.93 29.33 29.26 26.89 27.17 27.66 27.87 29.02 29.81 29.89 30.31 33.76 35.51 36.43 35.26 31.73 29.57 30.48 30.79 30.28 28.61 28.35 27.77 27.59 27.31 24.36 21.71
25.07 24.86 25.07 25.27 24.45 24.74 25.09 24.69 24.26 23.75 24.35 23.59 23.25 22.79 21.93 22.35 26.61 27.66 27.96 26.16 25.85 26.14 26.79 27.67 28.53 29.51 29.76 30.14 32.23 34.89 35.45 36.76 37.12 32.41 30.50 31.03 30.99 29.93 27.97 27.21 26.61 27.50 28.23
22.08 20.63 21.65 22.48 21.31 21.99 21.47 21.13 20.82 21.22 20.96 21.33 21.78 22.12 21.53 21.95 25.92 26.30 26.09 23.82 23.41 23.84 24.89 26.40 27.05 27.78 28.89 28.95 29.23 29.12 29.96 31.16 32.97 33.66 34.09 33.36 33.77 32.07 29.65 29.82 28.37 28.77 27.19
20.28 19.89 18.93 17.50 15.78 16.07 14.25 15.01 15.58 15.22 15.72 16.46 18.86 19.19 19.25 19.78 24.20 24.65 23.98 21.05 20.50 20.62 22.54 23.72 24.81 26.01 29.43 31.62 29.15 28.64 28.58 30.00 33.07 35.34 36.09 36.87 37.64 37.60 32.26 29.04 27.14 25.35 24.06
17.49 16.28 15.35 13.80 10.35 9.44 9.75 8.88 10.07 10.18 11.55 12.60 12.57 13.46 13.90 13.66 18.88 20.60 20.60 18.03 16.70 17.92 19.39 21.10 24.18 24.63 28.68 30.36 28.11 27.86 26.95 28.23 29.71 29.99 30.93 34.08 35.83 34.83 36.48 30.34 28.65 25.70 26.18
13.38 12.45 11.35 9.78 6.96 6.21 6.06 6.55 5.86 5.49 7.00 5.71 6.96 8.18 8.97 10.59 11.67 16.99 18.75 16.68 16.18 16.22 17.03 18.46 21.17 25.42 27.46 29.37 31.39 28.67 28.35 29.95 30.55 30.39 29.61 29.86 30.65 31.86 32.91 33.59 30.53 29.73 27.65
9.86 7.87 5.47 4.02 3.99 5.23 2.67 2.90 2.87 2.65 2.17 2.26 2.75 4.09 6.98 9.18 12.32 14.12 16.46 17.84 18.34 14.84 15.20 17.61 19.37 23.64 25.84 27.93 28.97 30.96 33.50 33.76 31.14 30.10 28.95 28.28 28.59 29.25 31.11 32.53 31.71 30.75 31.38
0.44 0.02 0.80 2.25 2.91 2.96 1.00 1.14 1.28 1.95 1.71 1.89 2.70 2.53 3.56 6.88 7.85 13.04 14.90 15.55 16.00 13.20 13.77 16.02 20.08 21.41 22.60 25.89 29.02 31.58 30.43 29.60 29.23 29.38 28.60 27.45 28.13 28.97 30.41 31.04 31.19 30.31 29.71
-6.01 -0.36 1.92 1.76 1.23 1.51 2.80 2.67 1.37 0.99 0.85 1.42 1.51 1.50 3.07 5.29 7.20 8.96 9.30 8.98 12.72 13.03 14.31 13.05 15.09 18.16 21.28 21.85 23.60 29.03 28.70 28.28 28.04 28.28 29.03 28.16 28.35 28.01 28.10 28.44 26.78 24.89 23.92
-0.43 1.41 1.32 1.53 0.59 1.02 2.00 1.39 2.30 4.36 5.76 5.38 7.37 8.86 8.40 8.14 10.21 15.52 16.88 15.79 15.73 16.55 15.20 12.76 12.54 14.92 15.57 16.17 22.90 24.26 24.28 25.16 25.90 27.55 28.94 27.79 27.24 26.42 26.00 26.39 26.01 22.72 22.97
-1.17 0.76 0.96 1.34 1.36 1.45 0.51 0.62 7.96 10.57 12.64 14.30 15.71 14.38 12.83 16.62 18.22 18.78 19.67 20.22 20.61 20.79 15.52 13.61 12.71 12.83 13.18 14.90 16.78 20.75 21.93 22.84 25.02 27.66 28.54 28.23 25.93 24.16 24.39 24.36 25.00 22.34 22.12
-2.83 0.18 0.73 1.18 0.47 -0.32 -0.27 -0.56 -1.31 3.90 11.23 12.69 13.82 15.06 16.07 16.73 18.42 19.50 20.30 20.70 21.25 20.39 14.22 12.46 11.27 12.02 13.49 15.13 16.66 18.77 21.49 23.25 25.14 26.72 27.71 27.44 25.20 24.01 23.66 22.74 22.14 21.05 21.01
-3.17 -0.17 -0.14 0.32 0.05 -0.09 0.10 0.47 1.12 0.65 0.67 2.35 9.48 12.30 15.16 16.25 17.15 19.02 20.26 20.00 14.42 14.99 13.17 11.45 10.37 12.04 13.52 14.44 18.08 19.05 20.84 23.05 23.28 25.13 26.41 25.95 25.17 23.97 22.36 20.59 20.08 19.66 19.93
-1.96 -0.99 -0.73 0.27 0.72 0.60 0.56 0.68 1.13 1.51 1.86 2.24 4.26 8.11 8.62 12.91 15.15 15.30 15.34 10.32 9.52 9.36 11.12 12.56 12.85 12.06 12.24 14.23 16.81 18.21 21.20 21.76 22.92 24.08 25.20 24.69 22.90 21.88 20.28 20.42 19.28 19.71 19.09
-3.27 -0.55 -0.06 -1.71 -1.40 -1.22 -0.90 -0.26 0.38 0.31 1.06 1.40 1.52 2.23 3.79 8.09 2.09 2.51 4.21 5.48 6.29 7.45 8.31 7.22 12.90 14.88 15.28 15.75 17.88 19.90 21.49 22.26 22.41 23.46 22.96 21.41 21.50 21.00 19.55 18.92 18.13 17.06 16.67
-2.60 -3.67 -3.34 -2.62 -3.72 -2.88 -1.89 -1.61 -0.65 0.09 0.25 0.01 0.80 3.03 12.64 3.99 1.31 1.33 2.00 3.30 4.18 5.15 6.29 8.43 15.18 16.09 17.84 20.99 20.20 22.87 23.34 21.67 21.28 20.93 19.69 19.51 19.36 18.05 18.76 17.97 17.03 16.90 15.92
-11.33 -8.14 -5.63 -5.52 -4.10 -4.02 -3.79 -2.42 -0.96 -0.55 0.09 -0.14 0.52 2.26 9.79 1.99 1.31 1.13 1.50 2.04 3.23 4.45 5.71 7.03 9.91 11.45 12.95 15.18 17.96 19.15 18.99 17.98 17.99 17.85 17.45 16.96 17.12 16.03 15.81 15.17 14.89 13.99 13.23
-10.97 -9.50 -8.02 -6.13 -5.30 -4.89 -4.67 -4.59 -3.17 -1.49 -1.02 0.10 0.86 0.83 1.39 1.26 1.41 1.32 1.22 1.81 2.35 2.90 3.73 4.61 5.23 7.07 9.60 11.11 12.74 13.52 13.21 13.24 14.71 16.04 15.01 14.26 14.08 13.74 13.51 12.60 12.31 12.05 11.74
-14.86 -13.82 -11.92 -9.36 -8.30 -6.48 -6.82 -5.60 -4.69 -3.22 -3.00 -1.81 -1.38 -0.58 -0.01 0.63 0.76 1.19 1.79 2.45 2.65 2.78 3.12 3.24 4.08 4.17 5.44 8.17 10.43 11.18 11.73 12.58 13.60 13.95 14.11 13.01 12.19 12.53 12.09 11.39 11.21 10.71 10.25
-17.39 -17.47 -16.51 -14.78 -14.32 -11.08 -9.20 -7.91 -5.93 -5.66 -4.46 -3.02 -2.94 -2.53 -1.93 -0.59 -0.30 0.18 1.08 1.79 2.39 2.43 2.62 2.99 3.56 5.69 6.41 6.63 7.60 9.08 10.93 11.42 11.65 12.40 12.31 11.70 10.85 10.54 10.22 9.57 9.33 9.34 9.11
-14.56 -16.83 -17.97 -16.79 -15.43 -14.88 -14.78 -11.23 -9.89 -8.14 -7.67 -5.80 -5.22 -4.75 -3.96 -3.52 -2.05 -1.11 -0.30 0.22 0.70 1.48 2.01 2.52 2.92 3.48 5.27 9.14 10.36 10.99 11.43 11.98 9.96 10.49 10.45 9.80 8.66 8.32 8.40 7.95 8.01 7.61 7.17
MSLP
1024.60 1024.64 1024.56 1024.03 1024.08 1024.04 1024.22 1024.19 1023.52 1022.95 1022.73 1022.31 1022.06 1022.10 1021.72 1021.25 1020.45 1019.25 1018.69 1018.58 1018.66 1018.48 1018.11 1017.79 1017.71 1017.55 1017.27 1017.25 1017.32 1017.31 1017.27 1017.43 1016.99 1016.60 1017.14 1017.04 1017.44 1017.77 1018.26 1018.55 1019.01 1019.42 1019.83
1025.02 1024.96 1024.91 1024.66 1024.72 1024.83 1024.45 1024.06 1023.87 1023.32 1022.52 1022.26 1021.95 1021.56 1021.61 1021.69 1021.50 1020.68 1019.18 1018.42 1018.37 1018.12 1017.38 1017.17 1017.00 1016.97 1016.97 1016.75 1016.42 1016.43 1016.33 1016.33 1016.64 1016.14 1016.78 1017.00 1016.81 1016.82 1016.90 1017.67 1018.11 1018.44 1018.81
1024.56 1024.67 1025.03 1024.65 1024.61 1024.77 1024.35 1023.98 1023.76 1023.31 1022.79 1022.49 1022.03 1021.44 1020.95 1020.79 1020.74 1020.59 1019.59 1018.15 1017.26 1016.90 1016.77 1016.52 1016.33 1016.32 1016.01 1016.21 1016.05 1015.60 1015.44 1015.36 1015.41 1015.58 1015.71 1016.36 1016.42 1016.43 1016.91 1017.28 1017.33 1017.85 1018.18
1024.71 1024.82 1024.86 1024.82 1024.89 1024.55 1024.21 1024.00 1023.63 1023.33 1022.86 1022.33 1022.02 1021.58 1021.08 1020.60 1020.01 1019.73 1018.92 1017.54 1016.79 1016.21 1016.13 1015.93 1015.70 1015.56 1015.33 1015.26 1015.07 1014.89 1014.76 1014.58 1014.71 1014.52 1014.56 1015.50 1015.68 1015.80 1015.92 1016.39 1017.05 1017.06 1017.48
1024.16 1024.32 1024.38 1024.35 1024.23 1024.12 1024.02 1023.88 1023.51 1023.17 1022.61 1022.27 1021.83 1021.20 1020.87 1020.47 1019.68 1019.19 1018.98 1017.56 1016.39 1015.53 1015.10 1015.29 1015.01 1014.65 1014.51 1014.39 1014.26 1013.89 1013.71 1013.85 1013.64 1013.73 1013.53 1014.07 1014.26 1014.72 1014.83 1015.21 1015.59 1016.35 1016.63
1024.45 1024.56 1024.43 1024.33 1024.01 1023.65 1023.18 1022.77 1022.50 1022.16 1021.84 1021.57 1021.05 1020.51 1020.10 1019.29 1018.63 1017.98 1017.68 1016.90 1016.14 1015.22 1014.65 1014.13 1014.09 1013.89 1013.53 1013.32 1013.19 1012.72 1012.70 1012.63 1012.39 1012.38 1012.35 1011.89 1011.92 1012.65 1013.40 1013.99 1014.71 1015.46 1016.29
1024.65 1024.44 1024.46 1024.35 1024.06 1023.76 1023.32 1022.86 1022.32 1021.81 1021.14 1020.40 1019.79 1019.38 1018.52 1017.85 1017.44 1017.00 1016.87 1016.50 1015.66 1014.53 1013.88 1013.57 1013.20 1012.74 1012.60 1012.43 1011.98 1011.75 1011.32 1011.04 1010.81 1011.35 1010.54 1010.24 1010.60 1010.98 1011.97 1012.69 1013.02 1013.25 1012.62
1024.92 1025.01 1024.83 1024.65 1024.46 1024.04 1023.57 1023.01 1022.35 1021.81 1020.96 1020.05 1019.03 1018.13 1017.33 1016.16 1016.09 1016.15 1016.25 1016.07 1014.86 1013.87 1013.30 1012.67 1012.19 1011.54 1011.30 1011.04 1010.81 1010.67 1010.23 1009.87 1009.54 1009.88 1009.47 1008.82 1009.22 1009.72 1009.97 1010.27 1011.45 1011.60 1012.45
1025.21 1025.19 1025.22 1025.27 1025.04 1024.62 1024.16 1023.56 1022.89 1022.18 1021.06 1020.01 1018.99 1018.02 1017.45 1016.31 1016.15 1015.94 1015.78 1015.12 1014.10 1013.07 1012.44 1011.77 1011.16 1010.29 1009.68 1009.69 1009.54 1009.18 1008.93 1008.20 1008.33 1008.41 1008.17 1007.99 1008.21 1008.29 1009.01 1009.77 1009.95 1011.41 1011.77
1025.51 1025.50 1025.52 1025.48 1025.30 1024.97 1024.49 1023.83 1023.07 1022.41 1021.15 1020.19 1018.83 1018.33 1017.55 1016.40 1015.79 1015.41 1015.15 1014.54 1013.25 1012.33 1011.24 1010.39 1009.72 1009.01 1008.25 1008.15 1008.13 1007.60 1007.13 1006.07 1006.79 1007.01 1007.07 1006.97 1007.13 1007.49 1007.76 1007.81 1008.62 1008.68 1009.51
1025.90 1025.82 1025.69 1025.57 1025.29 1024.87 1024.17 1023.62 1022.91 1022.06 1021.07 1020.10 1019.01 1018.24 1017.50 1016.70 1015.53 1015.08 1014.48 1013.63 1012.74 1011.53 1010.28 1009.11 1008.24 1007.66 1006.96 1006.40 1006.22 1005.91 1005.13 1005.01 1005.26 1005.62 1005.93 1005.98 1006.08 1006.05 1006.22 1006.43 1006.98 1006.89 1007.21
1026.07 1025.99 1025.77 1025.38 1024.98 1024.34 1023.74 1022.94 1022.34 1021.60 1020.54 1019.52 1018.53 1017.55 1016.83 1016.02 1015.25 1014.51 1013.79 1012.96 1012.07 1010.95 1009.63 1008.58 1007.57 1006.91 1005.94 1005.02 1004.50 1003.81 1003.54 1003.65 1003.95 1004.02 1004.32 1004.37 1004.43 1004.51 1004.60 1005.08 1005.58 1005.81 1006.09
1026.33 1026.08 1025.44 1024.86 1024.37 1023.84 1023.22 1022.35 1021.61 1020.77 1019.84 1018.85 1017.92 1016.81 1015.76 1015.03 1014.24 1013.52 1012.83 1012.22 1011.39 1010.30 1009.28 1008.09 1006.85 1006.10 1005.50 1003.88 1002.90 1002.22 1002.08 1002.16 1002.25 1002.25 1002.22 1002.38 1002.83 1003.19 1003.81 1004.15 1004.60 1005.17 1005.77
1026.13 1025.52 1024.81 1024.29 1023.69 1023.22 1022.63 1021.85 1020.98 1019.93 1018.96 1017.96 1016.90 1015.65 1014.51 1013.55 1012.71 1011.96 1011.23 1010.42 1009.54 1008.58 1007.59 1006.53 1005.86 1005.02 1004.31 1003.42 1001.89 1000.77 1000.45 1000.61 1000.79 1000.68 1000.69 1001.10 1001.68 1002.32 1002.73 1003.28 1003.75 1004.43 1005.31
1025.56 1024.89 1024.19 1023.65 1023.09 1022.55 1022.01 1021.14 1020.17 1019.05 1018.20 1016.52 1015.13 1013.99 1012.73 1011.57 1010.90 1009.93 1008.77 1007.82 1007.14 1006.39 1005.61 1005.06 1004.38 1003.50 1002.79 1002.00 1000.23 999.51 999.29 999.46 999.81 999.81 999.67 999.93 1000.48 1001.09 1001.66 1002.29 1002.85 1003.69 1004.21
1025.17 1024.32 1023.65 1022.93 1022.35 1021.83 1020.98 1020.00 1018.88 1017.90 1016.65 1015.38 1014.01 1012.78 1011.50 1010.37 1009.14 1008.16 1007.11 1006.11 1005.16 1004.35 1003.58 1003.14 1002.54 1002.08 1001.60 1001.21 1000.27 998.75 998.46 998.38 998.38 998.40 998.32 998.70 999.34 1000.00 1000.65 1001.44 1001.94 1002.52 1003.42
1024.81 1023.91 1023.12 1022.40 1021.84 1021.19 1020.31 1019.41 1018.09 1016.13 1015.34 1014.28 1013.18 1012.02 1010.80 1009.40 1007.88 1006.58 1005.44 1004.44 1003.55 1002.66 1002.07 1001.50 1001.03 1000.75 1000.29 1000.01 999.51 998.76 997.73 997.30 997.27 997.28 997.39 997.62 998.23 998.93 999.67 1000.32 1001.02 1001.72 1002.67
1024.11 1023.38 1022.70 1021.93 1021.37 1020.66 1019.76 1018.72 1017.70 1016.51 1015.11 1013.25 1011.63 1011.21 1009.72 1008.46 1007.21 1005.63 1004.18 1003.13 1002.41 1001.64 1001.03 1000.27 999.77 999.47 999.09 998.62 998.06 997.42 996.98 996.53 996.35 996.50 996.56 996.71 997.19 997.83 998.62 999.45 1000.23 1001.02 1001.89
1023.57 1022.79 1022.12 1021.37 1020.77 1020.18 1019.27 1018.21 1017.19 1016.03 1014.86 1013.51 1011.97 1010.46 1009.81 1008.34 1006.89 1005.73 1004.82 1003.89 1002.72 1001.53 1000.46 999.42 998.61 998.19 997.81 997.55 997.02 996.49 996.07 995.64 995.45 995.67 995.81 995.99 996.47 997.17 997.98 998.74 999.53 1000.26 1001.18
1022.85 1022.30 1021.73 1021.16 1020.48 1019.78 1018.95 1017.92 1016.77 1015.73 1014.53 1013.37 1012.19 1011.04 1009.69 1007.91 1007.26 1006.14 1005.25 1004.28 1003.18 1001.90 1000.54 999.42 997.68 996.88 996.60 996.21 995.84 995.42 995.02 994.87 994.78 994.95 995.15 995.58 996.07 996.67 997.46 998.30 999.21 1000.03 1000.80
1022.40 1022.01 1021.49 1020.89 1020.40 1019.76 1018.84 1017.84 1016.85 1015.80 1014.67 1013.60 1012.42 1011.24 1009.38 1008.80 1007.97 1006.97 1005.78 1004.65 1003.62 1002.35 1000.81 999.10 996.69 996.17 995.46 994.72 994.27 993.98 993.89 993.99 994.31 994.60 995.04 995.55 996.02 996.68 997.43 998.34 999.20 1000.06 1000.91
1022.22 1021.92 1021.25 1020.70 1020.21 1019.55 1018.74 1017.76 1016.85 1015.93 1014.88 1013.76 1012.46 1011.29 1009.94 1009.20 1008.38 1007.37 1006.28 1005.22 1004.17 1002.98 1001.67 1000.19 998.64 997.34 996.23 995.13 994.38 994.06 994.05 994.31 994.63 994.95 995.41 995.96 996.48 997.18 997.94 998.85 999.72 1000.50 1001.23
1021.95 1021.78 1021.06 1020.54 1020.13 1019.45 1018.60 1017.76 1016.93 1016.13 1015.17 1014.08 1013.01 1011.83 1010.69 1009.77 1008.85 1007.88 1006.87 1005.81 1004.73 1003.51 1002.33 1001.12 999.94 998.65 997.60 996.82 996.24 995.84 995.74 995.71 995.67 995.74 996.16 996.75 997.33 997.91 998.61 999.41 1000.17 1000.97 1001.69
1021.77 1021.71 1021.11 1020.72 1020.16 1019.45 1018.72 1017.89 1017.15 1016.37 1015.57 1014.60 1013.64 1012.68 1011.71 1010.71 1009.70 1008.64 1007.60 1006.53 1005.50 1004.45 1003.41 1002.42 1001.42 1000.51 999.54 998.51 997.89 997.52 997.23 997.08 997.01 997.11 997.27 997.68 998.25 998.81 999.52 1000.27 1000.98 1001.57 1002.20
1021.54 1021.52 1021.12 1020.84 1020.27 1019.76 1018.97 1018.17 1017.40 1016.65 1015.89 1015.04 1014.22 1013.41 1012.53 1011.54 1010.49 1009.43 1008.48 1007.53 1006.51 1005.50 1004.49 1003.61 1002.72 1001.70 1000.86 1000.15 999.63 999.11 998.69 998.32 998.34 998.43 998.60 998.87 999.29 999.81 1000.56 1001.27 1001.86 1002.49 1003.10
1021.25 1021.21 1021.24 1020.81 1020.31 1019.85 1019.23 1018.59 1017.87 1017.07 1016.34 1015.53 1014.78 1014.00 1013.14 1012.23 1011.26 1010.30 1009.38 1008.47 1007.53 1006.56 1005.67 1004.79 1003.93 1002.97 1002.12 1001.34 1000.81 1000.38 1000.06 999.86 999.91 999.87 999.94 1000.14 1000.42 1001.01 1001.83 1002.38 1002.88 1003.47 1004.06
Wind_Speed
6 7 7 7 9 8 8 7 6 5 5 5 6 9 11 10 9 7 6 7 7 7 7 7 10 9 9 8 5 8 9 6 16 10 4 6 9 11 10 12 11 12 11
1 1 3 3 4 6 6 6 8 10 9 8 7 5 5 6 10 9 7 6 7 8 7 7 10 7 9 11 9 10 11 9 11 18 5 5 8 14 13 13 11 10 10
0 2 4 5 5 6 6 6 7 8 9 10 9 10 11 10 8 9 8 8 7 7 7 8 10 7 10 9 9 11 10 9 9 12 11 3 6 5 4 7 10 10 8
4 4 4 5 6 6 7 7 8 8 9 9 10 10 10 12 12 13 12 8 7 7 8 9 10 10 13 12 10 12 11 11 8 10 12 5 4 4 8 10 7 7 10
4 5 5 4 5 5 6 7 8 9 9 10 10 10 10 11 9 10 12 11 11 11 9 9 10 11 17 17 10 12 10 11 11 10 13 5 6 4 13 8 11 8 9
3 5 6 7 10 13 13 13 12 11 9 9 11 11 13 10 19 22 20 12 12 13 13 12 11 12 15 23 25 26 19 13 14 12 13 16 16 11 9 11 10 8 8
6 8 9 10 11 11 12 13 14 15 16 16 16 14 15 14 23 26 27 15 15 14 15 14 13 11 13 13 20 25 24 27 28 16 18 19 15 13 10 13 15 12 12
5 5 6 8 9 11 13 15 17 16 17 17 19 19 18 17 29 29 29 18 15 17 17 18 17 17 16 14 14 15 16 15 18 16 20 20 18 10 16 17 16 18 6
7 5 5 6 9 12 13 15 16 17 18 18 18 20 19 20 30 32 28 17 17 20 18 19 19 20 25 28 17 17 17 18 18 27 30 30 26 24 17 10 13 10 11
5 8 10 10 8 11 14 15 14 14 17 15 19 19 22 23 30 35 30 15 18 16 19 21 29 25 33 33 20 18 17 19 14 15 14 24 27 21 26 18 14 16 14
7 9 9 10 12 12 13 12 14 14 16 16 18 16 18 19 20 31 31 18 14 15 15 15 15 31 34 35 33 19 21 18 16 14 14 13 13 14 14 14 18 16 15
7 9 10 11 9 10 13 13 13 13 14 15 16 14 12 14 21 24 28 29 27 17 17 16 18 34 37 37 30 32 31 27 13 12 12 12 12 13 13 14 16 18 15
4 8 9 10 10 11 12 13 12 12 11 12 12 13 13 12 12 27 30 30 29 20 15 25 39 37 36 33 37 35 28 13 13 13 13 14 13 11 12 11 11 15 15
6 8 9 10 10 10 9 10 11 11 11 12 13 14 14 13 12 11 12 14 24 22 25 19 22 28 33 31 25 21 14 12 13 14 13 11 9 9 11 9 8 8 6
8 9 9 8 9 11 11 11 11 13 14 14 13 13 14 14 13 25 25 16 13 16 18 14 13 13 12 13 13 9 8 9 12 15 13 10 10 9 10 9 9 8 10
9 8 8 9 9 10 10 11 22 26 29 30 32 26 15 28 34 34 34 33 33 33 16 14 13 12 13 12 14 9 9 12 13 13 12 11 10 11 11 8 10 10 11
8 10 9 9 9 11 10 11 12 18 29 29 29 30 31 31 33 33 33 31 30 28 12 12 13 13 12 11 12 13 11 9 10 11 11 10 10 11 13 11 10 10 10
7 12 8 8 9 10 10 11 11 12 13 16 23 26 28 31 32 34 30 27 14 15 12 13 13 12 10 11 11 10 11 9 8 9 9 9 10 11 10 11 11 12 11
7 7 8 8 9 11 10 11 10 11 12 13 14 19 18 30 31 28 27 11 11 11 11 12 11 11 11 11 10 11 11 9 9 9 10 8 8 10 11 11 12 16 13
5 10 9 7 9 9 9 10 10 11 12 12 12 12 14 13 12 13 11 11 10 11 12 11 12 10 11 11 12 12 12 11 8 9 8 8 9 10 10 10 10 11 11
5 6 8 6 7 8 8 9 9 10 10 11 11 13 28 12 11 11 11 10 11 11 13 13 9 7 9 12 12 12 9 5 6 6 6 6 7 8 7 8 8 9 9
3 5 5 6 7 8 8 7 8 9 10 11 11 12 25 9 10 10 11 10 11 11 10 11 10 8 8 7 6 3 3 4 4 5 5 6 7 7 8 8 8 8 9
3 5 4 5 6 8 7 7 7 9 10 10 11 11 11 11 10 11 11 10 10 11 11 10 11 11 10 9 8 7 6 5 4 5 7 7 7 7 8 8 9 9 9
3 3 3 5 5 6 6 7 7 9 9 9 10 10 10 10 11 12 11 11 10 10 10 10 10 13 11 10 8 7 6 6 6 6 7 7 7 8 8 7 7 9 9
3 3 3 4 4 6 6 6 7 7 8 8 9 9 10 10 10 11 11 11 10 10 11 11 10 12 13 14 13 13 12 12 10 9 7 9 10 11 8 7 9 8 10
3 3 3 3 4 4 4 5 6 7 7 7 7 8 8 9 9 9 10 11 10 10 12 9 12 16 16 10 9 10 12 13 11 12 8 8 9 9 8 9 12 8 10
Wind_Direction
20 6 359 5 3 2 356 343 344 330 328 336 337 337 337 332 325 329 318 296 279 262 254 244 251 245 249 248 220 237 244 225 254 254 224 202 195 196 196 199 190 196 206
78 38 341 333 339 330 323 329 333 332 335 331 327 308 287 303 314 310 297 276 264 266 265 255 255 249 251 252 250 238 240 229 244 256 216 213 198 205 199 194 198 202 200
54 325 304 318 311 294 299 296 303 308 314 314 318 322 322 312 293 281 277 284 283 276 269 260 260 246 251 253 249 248 246 244 233 246 245 197 217 194 168 205 197 201 199
195 212 245 261 262 269 277 280 281 279 282 287 285 284 292 297 298 300 298 286 270 272 275 274 268 256 256 254 243 246 247 244 231 231 241 187 199 208 199 196 196 201 204
331 332 310 284 269 273 263 261 259 253 258 255 263 262 266 267 270 279 276 280 287 285 268 261 262 258 256 253 253 250 235 241 241 234 243 188 195 168 203 189 208 202 216
313 290 298 309 315 317 314 313 306 298 285 271 279 273 272 264 276 287 290 283 278 274 274 270 260 258 258 260 257 253 246 236 238 237 241 238 228 216 192 197 196 188 215
334 327 319 314 308 304 303 304 304 306 306 299 292 287 282 279 286 292 294 289 282 277 272 267 264 254 248 250 257 258 254 248 247 242 241 240 240 210 185 198 204 213 221
322 304 300 306 314 320 315 310 308 305 300 298 296 295 293 291 293 294 296 292 288 283 277 271 264 263 253 244 245 248 248 246 242 240 249 248 243 223 200 202 202 215 223
313 310 339 335 318 313 307 305 304 303 298 296 293 292 291 289 292 293 296 295 290 284 280 276 271 268 261 259 251 245 246 246 246 244 241 250 256 242 206 194 206 199 223
323 325 321 316 312 306 302 299 297 295 292 294 293 293 293 293 295 297 296 288 284 284 281 277 273 269 266 262 255 247 245 245 237 243 245 245 240 245 247 206 204 207 217
323 312 312 312 304 297 294 295 295 293 291 291 289 292 293 293 297 298 296 288 281 278 274 273 270 269 269 265 256 247 243 248 244 240 240 238 236 234 228 227 217 217 217
316 310 302 296 292 295 293 294 291 289 287 288 289 289 287 289 291 295 297 294 291 288 284 280 275 276 275 268 262 254 251 248 240 235 233 232 229 227 222 221 221 225 227
290 286 287 291 292 291 295 295 295 289 287 289 291 292 290 284 279 283 287 289 287 284 281 282 284 288 292 281 272 255 250 242 239 236 227 225 225 227 230 216 213 219 231
274 288 294 295 295 293 294 291 290 289 290 288 285 281 280 279 275 272 266 263 265 268 268 270 269 272 278 280 267 254 239 235 239 243 239 226 219 211 214 199 194 179 187
300 300 299 291 299 299 288 288 284 283 283 284 284 289 293 291 287 287 293 291 283 271 261 255 260 269 275 278 274 237 231 227 240 244 239 217 209 199 202 189 190 178 194
301 304 301 303 306 298 294 291 291 296 298 298 299 299 295 295 300 299 296 294 291 286 276 274 272 263 263 276 283 249 243 239 237 237 229 222 205 197 195 190 188 188 191
282 299 301 305 303 298 297 297 300 306 304 304 306 307 307 301 299 299 299 298 295 293 278 271 261 263 259 257 260 269 238 233 232 234 231 216 198 195 191 189 186 180 183
281 291 292 301 299 296 296 297 299 303 307 310 313 313 313 318 315 311 310 306 297 285 272 263 259 258 269 248 255 243 253 243 216 226 226 204 196 194 188 185 184 184 181
291 299 300 301 300 298 298 299 300 304 305 306 309 316 322 317 316 327 324 318 303 292 285 275 255 247 245 252 254 248 249 232 222 223 225 205 185 181 188 187 185 186 176
283 287 309 304 303 302 302 305 313 314 315 317 318 319 316 318 334 326 326 321 317 309 307 299 275 246 243 242 246 245 244 233 223 220 205 184 183 181 184 178 177 172 173
289 304 296 304 306 300 303 311 314 316 318 320 318 320 331 347 323 323 324 327 324 321 319 320 317 259 249 254 229 230 220 208 198 183 167 170 163 162 159 163 164 165 157
274 281 301 313 308 308 308 311 318 318 320 322 324 328 342 339 335 332 333 334 331 331 331 334 339 349 353 2 8 20 115 127 131 136 136 135 136 132 134 138 142 144 143
289 289 308 318 308 307 316 320 326 328 326 329 331 334 342 343 342 342 341 340 341 344 347 350 355 355 1 9 17 28 38 41 54 99 111 114 120 124 129 134 139 142 147
299 286 316 312 307 316 314 324 325 331 332 335 339 340 342 343 344 346 347 347 350 353 358 359 2 7 4 11 16 25 37 41 48 66 94 107 111 116 116 121 129 132 129
303 321 330 298 313 310 312 322 328 329 334 338 339 339 339 341 346 349 349 349 351 356 359 360 3 7 19 25 29 32 39 51 59 66 74 88 95 99 105 110 119 118 119
314 326 302 301 308 305 307 324 323 326 327 330 329 330 333 338 341 345 347 351 352 356 359 1 2 5 6 12 38 48 57 61 60 66 73 86 93 91 96 102 103 104 107